#timestamp,LO_Frequency,Hit,StdDev 
1544522415.9,286046998.6,N
1544522435.7,286047000.8,N
1544522455.5,286047000.5,N
1544522475.4,286047000.9,N
1544522495.2,286046998.1,N
1544522515.1,286046998.5,N
1544522516.0,286046998.5,N
1544522535.8,286046998.5,N
1544522555.6,286046998.6,N
1544522575.5,286046998.3,N
1544522595.3,286046999.3,N
1544522615.1,286046999.2,N
1544522635.9,286046999.3,N
1544522655.7,286046998.8,N
1544522675.6,286046996.5,N
1544522695.4,286046998.7,N
1544522715.2,286047001.2,N
1544522735.2,286046998.3,N
1544522755.1,286047001.2,N
1544522756.0,286047001.2,N
1544522775.8,286046999.0,N
1544522795.6,286046998.5,N
1544522815.5,286046999.1,N
1544522835.3,286046998.3,N
1544522855.2,286046998.5,N
1544522875.9,286047001.1,N
1544522895.7,286047001.1,N
1544522915.6,286047001.1,N
1544522935.4,286047000.7,N
1544522955.3,286047000.9,N
1544522975.1,286047000.5,N
1544522976.0,286047000.5,N
1544522995.8,286046998.3,N
1544523015.7,286047000.7,N
1544523035.5,286046998.6,N
1544523055.3,286046998.3,N
1544523075.2,286047001.1,N
1544523095.0,286046998.6,N
1544523095.9,286046998.6,N
1544523115.8,286046999.6,N
1544523135.6,286046997.2,N
1544523155.4,286046996.6,N
1544523175.3,286046997.1,N
1544523195.1,286046996.9,N
1544523215.9,286046999.2,N
1544523235.7,286046998.9,N
1544523255.5,286046998.4,N
1544523275.4,286046996.5,N
1544523295.2,286046998.2,N
1544523315.0,286046998.1,N
1544523315.9,286046998.1,N
1544523335.8,286047000.6,N
1544523355.6,286047000.6,N
1544523375.5,286047001.0,N
1544523395.3,286047000.4,N
1544523415.1,286047000.5,N
1544523435.9,286046998.4,N
1544523455.7,286047000.4,N
1544523475.5,286047000.2,N
1544523495.4,286046998.3,N
1544523515.2,286046998.5,N
1544523535.1,286046999.2,N
1544523536.0,286046999.2,N
1544523555.8,286046997.8,N
1544523575.6,286046996.9,N
1544523595.5,286046996.7,N
1544523615.3,286046996.9,N
1544523635.1,286046999.3,N
1544523655.9,286046999.5,N
1544523675.7,286046998.1,N
1544523695.6,286046998.9,N
1544523715.4,286046998.5,N
1544523735.2,286046999.0,N
1544523755.1,286046999.6,N
1544523756.0,286046999.6,N
1544523775.8,286046997.4,N
1544523795.7,286046997.4,N
1544523815.5,286046997.0,N
1544523835.3,286046999.5,N
1544523855.2,286046998.2,N
1544523875.9,286046998.2,N
1544523895.7,286046998.5,N
1544523915.6,286046998.8,N
1544523935.4,286046999.1,N
1544523955.3,286046996.6,Y
1544523975.1,286047000.3,P
1544523976.0,286047000.3,N
1544523995.8,286047002.4,P
1544524015.7,286047002.7,N
1544524035.5,286047000.2,N
1544524055.3,286047002.8,N
1544524075.2,286047001.0,N
1544524095.0,286047000.3,N
1544524095.9,286047000.3,N
1544524115.8,286046999.7,N
1544524135.6,286046999.9,N
1544524155.4,286047001.1,N
1544524175.3,286047002.2,N
1544524195.1,286047002.6,N
1544524215.9,286047000.1,N
1544524235.7,286047001.8,N
1544524255.5,286047002.8,N
1544524275.4,286047000.0,N
1544524295.2,286046999.9,N
1544524315.0,286047000.1,N
1544524315.9,286047000.1,N
1544524335.8,286047000.0,N
1544524355.6,286046998.9,N
1544524375.5,286047001.0,N
1544524395.3,286046999.8,N
1544524415.1,286047000.2,N
1544524435.9,286047002.7,N
1544524455.7,286047000.2,N
1544524475.6,286046998.1,N
1544524495.4,286046998.9,N
1544524515.2,286046999.4,N
1544524535.1,286046996.7,N
1544524536.0,286046996.7,N
1544524555.8,286046997.4,N
1544524575.6,286046997.2,N
1544524595.5,286046997.1,N
1544524615.3,286046996.5,N
1544524635.2,286046996.8,N
1544524655.9,286046999.1,N
1544524675.7,286046998.2,N
1544524695.6,286046998.7,N
1544524715.4,286046996.5,N
1544524735.2,286046998.2,N
1544524755.1,286047001.1,N
1544524756.0,286047001.1,N
1544524775.8,286046998.2,N
1544524795.7,286047000.5,N
1544524815.5,286047002.5,N
1544524835.3,286047004.4,N
1544524855.2,286047004.4,N
1544524875.0,286047002.8,N
1544524875.9,286047002.8,N
1544524895.8,286047000.6,N
1544524915.6,286046999.9,N
1544524935.4,286046998.1,N
1544524955.3,286047001.2,N
1544524975.1,286046999.0,N
1544524995.9,286047001.2,N
1544525015.7,286047000.2,N
1544525035.6,286046999.7,N
1544525055.4,286047000.6,N
1544525075.2,286047001.1,N
1544525095.1,286047000.3,N
1544525096.0,286047000.3,N
1544525115.8,286047000.5,N
1544525135.7,286047000.7,N
1544525155.5,286046998.1,N
1544525175.3,286047001.1,N
1544525195.2,286046999.0,N
1544525215.0,286046999.0,N
1544525215.9,286046999.0,N
1544525235.4,286046997.3,N
1544525255.2,286046997.6,N
1544525275.1,286046996.8,N
1544525276.0,286046996.8,N
1544525295.8,286046999.2,N
1544525315.7,286046995.1,N
1544525335.5,286046995.9,N
1544525355.3,286046995.7,N
1544525375.2,286046995.1,N
1544525395.0,286046997.8,N
1544525395.9,286046997.8,N
1544525415.8,286046999.0,N
1544525435.6,286046998.7,N
1544525455.4,286047000.7,N
1544525475.3,286046998.8,N
1544525495.1,286047001.1,N
1544525515.9,286047000.6,N
1544525535.7,286047000.5,N
1544525555.5,286047001.0,N
1544525575.4,286047001.2,N
1544525595.2,286046998.5,N
1544525615.0,286046996.5,N
1544525615.9,286046996.5,N
1544525635.8,286046997.2,N
1544525655.6,286046997.9,N
1544525675.5,286046997.3,N
1544525695.3,286046998.1,N
1544525715.1,286046998.5,N
1544525735.9,286046999.0,N
1544525755.7,286046997.0,N
1544525775.6,286046999.4,N
1544525795.4,286046997.4,N
1544525815.2,286046997.8,N
1544525835.1,286046999.6,N
1544525836.0,286046999.6,N
1544525855.8,286046997.1,N
1544525875.6,286046996.3,N
1544525895.5,286046995.9,N
1544525915.3,286046995.8,N
1544525935.2,286046995.3,N
1544525955.9,286046995.3,N
1544525975.7,286046995.5,N
1544525995.6,286046993.5,Y
